• Join FlightAware (Why Join?)
  • Login
  • US Flag 
12:24PM EST


 

Airport Tracker/Info


-or-


 

Live Flight TrackerFlight Track Log ✈ AAL1691 ✈ 27-Apr-2014 ✈ KDFW - KEWR

Flight Track Log - Related Links

Times and Time Zones

All times are in EDT time to prevent confusion due to time zone crossing. See the AAL1691 flight status page for this flight to view local times or setup timezone preferences in your user account.

Time Position Orientation Groundspeed Altitude Reporting Facility
EDT Latitude Longitude Course Direction KTS MPH feet Rate Location/Type
06:15PM 32.8833 -97.0333 84° East 191 220 1,300  Level Dallas / Fort Worth TRACON
06:16PM 32.8333 -97.0000 151° Southeast 197 227 3,000 1,429 Climbing Dallas / Fort Worth TRACON
06:17PM 32.7833 -96.9500 140° Southeast 292 336 4,300 1,800 Climbing Dallas / Fort Worth TRACON
06:18PM 32.7833 -96.8500 90° East 310 357 6,600 2,350 Climbing Dallas / Fort Worth TRACON
06:19PM 32.8333 -96.7833 48° Northeast 320 368 9,000 2,013 Climbing Dallas / Fort Worth TRACON
06:21PM 32.7455 -96.3714 84° East  Level FlightAware Approximate
06:21PM 32.9169 -96.6542 52° Northeast 368 423 11,600  Level Fort Worth Center
06:22PM 32.9539 -96.5275 71° East 382 440 13,600 1,887 Climbing Fort Worth Center
06:23PM 32.9903 -96.4028 71° East 400 460 15,500 1,790 Climbing Fort Worth Center
06:24PM 33.0286 -96.2586 72° East 423 487 17,300 1,887 Climbing Fort Worth Center
06:25PM 33.1144 -96.1569 45° Northeast 433 498 19,400 1,694 Climbing Fort Worth Center
06:26PM 33.1942 -96.0203 55° Northeast 466 536 20,800 1,355 Climbing Fort Worth Center
06:27PM 33.2553 -95.8811 62° Northeast 473 544 22,200 1,355 Climbing Fort Worth Center
06:28PM 33.3244 -95.7336 61° Northeast 488 562 23,600 1,210 Climbing Fort Worth Center
06:29PM 33.3911 -95.5892 61° Northeast 494 568 24,700 1,161 Climbing Fort Worth Center
06:30PM 33.4461 -95.4525 64° Northeast 505 581 26,000 1,248 Climbing Fort Worth Center
06:31PM 33.4997 -95.2581 72° East 513 590 27,300 1,152 Climbing Fort Worth Center
06:32PM 33.5014 -95.0922 89° East 496 571 28,400 1,016 Climbing Fort Worth Center
06:33PM 33.4644 -94.9381 106° East 487 560 29,400 919 Climbing Fort Worth Center
06:34PM 33.3883 -94.8200 128° Southeast 457 526 30,300 774 Climbing Fort Worth Center
06:35PM 33.3108 -94.7019 128° Southeast 457 526 31,000 339 Climbing Fort Worth Center
06:36PM 33.2353 -94.5844 128° Southeast 453 521 31,000  Level Fort Worth Center
06:37PM 33.1444 -94.4425 127° Southeast 453 521 31,000  Level Fort Worth Center
06:38PM 33.0669 -94.3244 128° Southeast 454 522 31,000 48 Level Fort Worth Center
06:39PM 32.9889 -94.2044 128° Southeast 462 532 31,100 48 Climbing Fort Worth Center
06:40PM 32.9108 -94.0842 128° Southeast 465 535 31,100 -48 Level Fort Worth Center
06:41PM 32.8183 -93.9411 128° Southeast 462 532 31,000 -48 Descending Fort Worth Center
06:42PM 32.7403 -93.8219 128° Southeast 461 531 31,000 -48 Level Fort Worth Center
06:44PM 32.6619 -93.7050 128° Southeast 458 527 30,900 -48 Descending Fort Worth Center
06:45PM 32.5836 -93.5850 128° Southeast 459 528 30,900 48 Level Fort Worth Center
06:46PM 32.5036 -93.4653 128° Southeast 465 535 31,000 48 Climbing Fort Worth Center
06:47PM 32.4228 -93.3444 128° Southeast 466 536 31,000  Level Fort Worth Center
06:48PM 32.3258 -93.1989 128° Southeast 468 539 31,000  Level Fort Worth Center
06:49PM 32.2519 -93.0878 128° Southeast 471 542 31,000 48 Level Fort Worth Center
06:50PM 32.1708 -92.9667 128° Southeast 470 541 31,100  Climbing Fort Worth Center
06:50PM 32.1036 -92.8689 129° Southeast 474 545 31,000 -117 Descending Houston Center
06:51PM 32.0122 -92.7347 129° Southeast 473 544 30,900 -48 Descending Houston Center
06:52PM 31.9517 -92.5956 117° Southeast 488 562 30,900  Level Houston Center
06:53PM 31.9106 -92.4456 108° East 486 559 30,900  Level Houston Center
06:55PM 31.8706 -92.2944 107° East 486 559 30,900 48 Level Houston Center
06:56PM 31.8289 -92.1419 108° East 486 559 31,000 97 Climbing Houston Center
06:57PM 31.7842 -91.9744 107° East 485 558 31,100 48 Climbing Houston Center
06:58PM 31.7433 -91.8228 108° East 484 557 31,100 435 Level Houston Center
06:59PM 31.7022 -91.6733 108° East 484 557 32,000 823 Climbing Houston Center
07:00PM 31.6614 -91.5272 108° East 475 547 32,800 484 Climbing Houston Center
07:01PM 31.6211 -91.3814 108° East 472 543 33,000 96 Climbing Houston Center
07:02PM 31.5728 -91.2056 108° East 472 543 33,000 -48 Level Houston Center
07:03PM 31.5358 -91.0767 109° East 472 543 32,900 -48 Descending Houston Center
07:04PM 31.4972 -90.9306 107° East 471 542 32,900 48 Level Houston Center
07:05PM 31.4461 -90.7578 109° East 469 540 33,000 48 Climbing Houston Center
07:06PM 31.4056 -90.6114 108° East 469 540 33,000  Level Houston Center
07:07PM 31.3639 -90.4656 108° East 470 541 33,000  Level Houston Center
07:08PM 31.3211 -90.3208 109° East 471 542 33,000  Level Houston Center
07:09PM 31.2925 -90.1708 103° East 471 542 33,000 -48 Level Houston Center
07:10PM 31.2764 -90.0186 97° East 471 542 32,900 -48 Descending Houston Center
07:11PM 31.2539 -89.8364 98° East 471 542 32,900  Level Houston Center
07:12PM 31.2350 -89.6822 98° East 473 544 32,900 48 Level Houston Center
07:13PM 31.2158 -89.5269 98° East 479 551 33,000 48 Climbing Houston Center
07:14PM 31.1953 -89.3700 99° East 485 558 33,000  Level Houston Center
07:15PM 31.1764 -89.2139 98° East 489 563 33,000  Level Houston Center
07:16PM 31.1558 -89.0586 99° East 485 558 33,000 -48 Level Houston Center
07:17PM 31.1328 -88.8811 99° East 477 549 32,900 -48 Descending Houston Center
07:18PM 31.1125 -88.7286 99° East 477 549 32,900  Level Houston Center
07:19PM 31.0919 -88.5733 99° East 475 547 32,900  Level Houston Center
07:20PM 31.0719 -88.4208 99° East 476 548 32,900  Level Houston Center
07:21PM 31.0503 -88.2675 99° East 478 550 32,900 48 Level Houston Center
07:22PM 31.0308 -88.1139 98° East 479 551 33,000 97 Climbing Houston Center
07:24PM 31.0053 -87.9306 99° East 479 551 33,100  Climbing Houston Center
07:25PM 30.9844 -87.7792 99° East 476 548 33,000 -96 Descending Houston Center
07:26PM 30.9617 -87.6208 99° East 473 544 32,900 -48 Descending Houston Center
07:27PM 30.9403 -87.4694 99° East 474 545 32,900 48 Level Houston Center
07:28PM 30.9186 -87.3175 99° East 474 545 33,000 61 Climbing Houston Center
07:28PM 30.9067 -87.2286 99° East 469 540 33,000 62 Level Jacksonville Center
07:29PM 30.8847 -87.0728 99° East 474 545 33,100  Climbing Jacksonville Center
07:30PM 30.8647 -86.9169 98° East 474 545 33,000 -50 Descending Jacksonville Center
07:31PM 30.8403 -86.7636 100° East 474 545 33,000  Level Jacksonville Center
07:32PM 30.8411 -86.5944 90° East 474 545 33,000  Level Jacksonville Center
07:33PM 30.8706 -86.4381 78° East 466 536 33,000 -50 Level Jacksonville Center
07:34PM 30.8978 -86.2867 78° East 477 549 32,900  Descending Jacksonville Center
07:35PM 30.9267 -86.1328 78° East 484 557 33,000 50 Climbing Jacksonville Center
07:36PM 30.9558 -85.9764 78° East 484 557 33,000  Level Jacksonville Center
07:37PM 30.9778 -85.8414 79° East 484 557 33,000 -50 Level Jacksonville Center
07:38PM 31.0061 -85.6897 78° East 479 551 32,900  Descending Jacksonville Center
07:39PM 31.0322 -85.5425 78° East 473 544 33,000  Climbing Jacksonville Center
07:40PM 31.0603 -85.3928 78° East 467 537 32,900 -50 Descending Jacksonville Center
07:41PM 31.0861 -85.2456 78° East 467 537 32,900 50 Level Jacksonville Center
07:42PM 31.1117 -85.0983 79° East 467 537 33,000 100 Climbing Jacksonville Center
07:43PM 31.1350 -84.9556 79° East 467 537 33,100  Climbing Jacksonville Center
07:44PM 31.1603 -84.8081 79° East 460 529 33,000 -100 Descending Jacksonville Center
07:45PM 31.1853 -84.6653 78° East 454 522 32,900 -50 Descending Jacksonville Center
07:46PM 31.2103 -84.5250 78° East 448 516 32,900  Level Jacksonville Center
07:47PM 31.2331 -84.3772 80° East 453 521 32,900 50 Level Jacksonville Center
07:48PM 31.2597 -84.2317 78° East 453 521 33,000 100 Climbing Jacksonville Center
07:49PM 31.2839 -84.0861 79° East 453 521 33,100 50 Climbing Jacksonville Center
07:50PM 31.3083 -83.9406 79° East 453 521 33,100 -50 Level Jacksonville Center
07:51PM 31.3325 -83.7900 79° East 453 521 33,000 -50 Descending Jacksonville Center
07:52PM 31.3564 -83.6467 79° East 453 521 33,000  Level Jacksonville Center
07:53PM 31.3800 -83.4839 80° East 453 521 33,000  Level Jacksonville Center
07:54PM 31.4036 -83.3406 79° East 453 521 33,000  Level Jacksonville Center
07:55PM 31.4269 -83.1969 79° East 448 516 33,000 -50 Level Jacksonville Center
07:56PM 31.4544 -83.0483 78° East 448 516 32,900  Descending Jacksonville Center
07:57PM 31.4756 -82.9047 80° East 448 516 33,000 50 Climbing Jacksonville Center
07:58PM 31.4964 -82.7611 80° East 448 516 33,000  Level Jacksonville Center
07:59PM 31.5189 -82.6147 80° East 448 516 33,000 50 Level Jacksonville Center
08:00PM 31.5708 -82.4853 65° Northeast 435 501 33,100 50 Climbing Jacksonville Center
08:01PM 31.6814 -82.4189 27° Northeast 409 471 33,100 -50 Level Jacksonville Center
08:02PM 31.7917 -82.3500 28° Northeast 423 487 33,000 -50 Descending Jacksonville Center
08:03PM 31.8978 -82.2881 26° Northeast 423 487 33,000  Level Jacksonville Center
08:04PM 31.9956 -82.2286 27° Northeast 428 493 33,000 -50 Level Jacksonville Center
08:05PM 32.1142 -82.1567 27° Northeast 428 493 32,900 -50 Descending Jacksonville Center
08:06PM 32.2203 -82.0897 28° Northeast 433 498 32,900 100 Level Jacksonville Center
08:07PM 32.3328 -82.0222 27° Northeast 432 497 33,100 100 Climbing Jacksonville Center
08:08PM 32.4408 -81.9572 27° Northeast 432 497 33,100 -50 Level Jacksonville Center
08:09PM 32.5364 -81.8944 29° Northeast 424 488 33,000 -50 Descending Jacksonville Center
08:10PM 32.6483 -81.8094 33° Northeast 429 494 33,000 -50 Level Jacksonville Center
08:11PM 32.7394 -81.7367 34° Northeast 434 499 32,900 -50 Descending Jacksonville Center
08:12PM 32.8411 -81.6614 32° Northeast 434 499 32,900  Level Jacksonville Center
08:13PM 32.9508 -81.5781 33° Northeast 434 499 32,900 50 Level Jacksonville Center
08:14PM 33.0544 -81.4972 33° Northeast 434 499 33,000 100 Climbing Jacksonville Center
08:15PM 33.1558 -81.4189 33° Northeast 434 499 33,100 -50 Climbing Jacksonville Center
08:16PM 33.2550 -81.3400 34° Northeast 434 499 32,900 -100 Descending Jacksonville Center
08:17PM 33.3564 -81.2614 33° Northeast 434 499 32,900  Level Jacksonville Center
08:18PM 33.4556 -81.1872 32° Northeast 434 499 32,900  Level Jacksonville Center
08:19PM 33.5567 -81.1081 33° Northeast 429 494 32,900  Level Jacksonville Center
08:20PM 33.6558 -81.0311 33° Northeast 429 494 32,900  Level Jacksonville Center
08:21PM 33.7567 -80.9492 34° Northeast 429 494 32,900 50 Level Jacksonville Center
08:22PM 33.8578 -80.8719 32° Northeast 434 499 33,000 50 Climbing Jacksonville Center
08:23PM 33.9586 -80.7894 34° Northeast 434 499 33,000  Level Jacksonville Center
08:24PM 34.0597 -80.7117 33° Northeast 434 499 33,000 -50 Level Jacksonville Center
08:25PM 34.1603 -80.6289 34° Northeast 434 499 32,900 -50 Descending Jacksonville Center
08:26PM 34.2592 -80.5511 33° Northeast 434 499 32,900  Level Jacksonville Center
08:27PM 34.3597 -80.4728 33° Northeast 434 499 32,900  Level Jacksonville Center
08:28PM 34.4606 -80.3894 34° Northeast 434 499 32,900 60 Level Jacksonville Center
08:31PM 34.6536 -80.1769 42° Northeast 426 490 33,100 60 Climbing Washington Center
08:32PM 34.7431 -80.0733 44° Northeast 432 497 33,100 -50 Level Washington Center
08:33PM 34.8364 -79.9747 41° Northeast 437 503 33,000 -50 Descending Washington Center
08:34PM 34.9278 -79.8731 42° Northeast 437 503 33,000 -49 Level Washington Center
08:35PM 35.0169 -79.7714 43° Northeast 432 497 32,900  Descending Washington Center
08:36PM 35.1058 -79.6694 43° Northeast 432 497 33,000 50 Climbing Washington Center
08:37PM 35.2008 -79.5775 38° Northeast 432 497 33,000 50 Level Washington Center
08:38PM 35.3036 -79.5011 31° Northeast 427 491 33,100 50 Climbing Washington Center
08:39PM 35.4061 -79.4272 30° Northeast 427 491 33,100 -100 Level Washington Center
08:40PM 35.5192 -79.3458 30° Northeast 427 491 32,900 -99 Descending Washington Center
08:41PM 35.6089 -79.2786 31° Northeast 427 491 32,900 51 Level Washington Center
08:42PM 35.7114 -79.2042 31° Northeast 427 491 33,000 50 Climbing Washington Center
08:43PM 35.8158 -79.1269 31° Northeast 427 491 33,000  Level Washington Center
08:44PM 35.9269 -79.0444 31° Northeast 427 491 33,000  Level Washington Center
08:45PM 36.0311 -78.9694 30° Northeast 427 491 33,000  Level Washington Center
08:46PM 36.1358 -78.8892 32° Northeast 432 497 33,000  Level Washington Center
08:47PM 36.2400 -78.8136 30° Northeast 432 497 33,000  Level Washington Center
08:48PM 36.3422 -78.7353 32° Northeast 432 497 33,000  Level Washington Center
08:49PM 36.4442 -78.6619 30° Northeast 432 497 33,000  Level Washington Center
08:50PM 36.5464 -78.5808 33° Northeast 432 497 33,000 50 Level Washington Center
08:51PM 36.6506 -78.5044 30° Northeast 432 497 33,100  Climbing Washington Center
08:52PM 36.7400 -78.4328 33° Northeast 432 497 33,000  Descending Washington Center
08:53PM 36.8419 -78.3586 30° Northeast 427 491 33,100  Climbing Washington Center
08:54PM 36.9436 -78.2817 31° Northeast 427 491 33,000 -101 Descending Washington Center
08:55PM 37.0456 -78.2019 32° Northeast 427 491 32,900  Descending Washington Center
08:56PM 37.1539 -78.1194 31° Northeast 418 481 33,000 50 Climbing Washington Center
08:57PM 37.2514 -78.0419 32° Northeast 418 481 33,000 50 Level Washington Center
08:58PM 37.3531 -77.9667 30° Northeast 418 481 33,100 51 Climbing Washington Center
08:59PM 37.4525 -77.8886 32° Northeast 418 481 33,100 -51 Level Washington Center
09:00PM 37.5500 -77.8106 32° Northeast 418 481 33,000 -49 Descending Washington Center
09:01PM 37.6433 -77.7242 36° Northeast 418 481 33,000 -50 Level Washington Center
09:02PM 37.7386 -77.6375 36° Northeast 423 487 32,900  Descending Washington Center
09:03PM 37.8339 -77.5533 35° Northeast 423 487 33,000  Climbing Washington Center
09:04PM 37.9292 -77.4636 37° Northeast 423 487 32,900 -50 Descending Washington Center
09:05PM 38.0244 -77.3764 36° Northeast 423 487 32,900 50 Level Washington Center
09:06PM 38.1111 -77.2992 35° Northeast 418 481 33,000 100 Climbing Washington Center
09:07PM 38.2083 -77.2089 36° Northeast 418 481 33,100 -246 Climbing Washington Center
09:08PM 38.3033 -77.1211 36° Northeast 423 487 32,500 -958 Descending Washington Center
09:09PM 38.3981 -77.0328 36° Northeast 423 487 31,200 -1,350 Descending Washington Center
09:10PM 38.4931 -76.9444 36° Northeast 423 487 29,800 -1,450 Descending Washington Center
09:11PM 38.5878 -76.8558 36° Northeast 418 481 28,300 -1,361 Descending Washington Center
09:12PM 38.6844 -76.7672 36° Northeast 418 481 27,100 -639 Descending Washington Center
09:13PM 38.7753 -76.6647 41° Northeast 418 481 27,000 -50 Descending Washington Center
09:14PM 38.8656 -76.5622 41° Northeast 430 495 27,000  Level Washington Center
09:15PM 38.9539 -76.4592 42° Northeast 435 501 27,000  Level Washington Center
09:16PM 39.0444 -76.3586 41° Northeast 435 501 27,000  Level Washington Center
09:17PM 39.1344 -76.2500 43° Northeast 435 501 27,000  Level Washington Center
09:18PM 39.2331 -76.1328 43° Northeast 440 506 27,000 -403 Level Washington Center
09:19PM 39.3231 -76.0289 42° Northeast 440 506 26,200 -1,271 Descending Washington Center
09:20PM 39.4111 -75.9272 42° Northeast 434 499 24,500 -1,650 Descending Washington Center
09:21PM 39.4967 -75.8256 43° Northeast 422 486 22,900 -1,426 Descending Washington Center
09:22PM 39.5803 -75.7261 42° Northeast 415 478 21,600 -1,210 Descending Washington Center
09:23PM 39.6656 -75.6267 42° Northeast 409 471 20,500 -1,311 Descending Washington Center
09:24PM 39.7447 -75.5322 43° Northeast 399 459 19,000 -1,574 Descending Washington Center
09:25PM 39.8258 -75.4322 43° Northeast 394 453 17,300 -1,765 Descending Washington Center
09:26PM 39.9028 -75.3400 43° Northeast 389 448 15,500 -1,475 Descending Washington Center
09:27PM 39.9611 -75.2694 43° Northeast 377 434 14,400 -1,636 Descending Washington Center
09:28PM 40.0400 -75.1742 43° Northeast 356 410 12,200 -1,686 Descending Washington Center
09:29PM 40.1061 -75.0897 44° Northeast 339 390 11,000 -1,432 Descending Washington Center
09:30PM 40.2000 -74.9667 45° Northeast 279 321 8,500 -1,208 Descending New York TRACON
09:31PM 40.2500 -74.9000 45° Northeast 272 313 8,000 -200 Descending New York TRACON
09:32PM 40.3167 -74.8500 30° Northeast 223 257 8,100 -619 Climbing New York TRACON
09:33PM 40.3667 -74.8000 37° Northeast 225 259 6,700 -1,300 Descending New York TRACON
09:34PM 40.3833 -74.7333 72° East 225 259 5,500 -800 Descending New York TRACON
09:35PM 40.3833 -74.6500 90° East 241 277 5,100 -200 Descending New York TRACON
09:36PM 40.3833 -74.5667 90° East 214 246 5,100 -500 Level New York TRACON
09:37PM 40.3667 -74.5000 108° East 185 213 4,100 -1,000 Descending New York TRACON
09:38PM 40.3667 -74.4333 90° East 175 201 3,100 -500 Descending New York TRACON
09:39PM 40.3833 -74.3833 66° East 176 203 3,100 -100 Level New York TRACON
09:40PM 40.4167 -74.3333 49° Northeast 169 194 2,900 -150 Descending New York TRACON
09:41PM 40.4500 -74.3167 21° North 165 190 2,800  Descending New York TRACON
09:42PM 40.5000 -74.2833 27° Northeast 167 192 2,900 -100 Climbing New York TRACON
09:43PM 40.5333 -74.2667 21° North 164 189 2,600 -500 Descending New York TRACON
09:44PM 40.5833 -74.2333 27° Northeast 152 175 1,900 -500 Descending New York TRACON
09:45PM 40.6167 -74.2167 21° North 130 150 1,600 -500 Descending New York TRACON
09:46PM 40.6500 -74.2000 21° North 132 152 900 -700 Descending New York TRACON